TimeAKDT,TemperatureF,Dew PointF,Humidity,Sea Level PressureIn,VisibilityMPH,Wind Direction,Wind SpeedMPH,Gust SpeedMPH,PrecipitationIn,Events,Conditions,WindDirDegrees,DateUTC
12:53 AM,45.0,43.0,93,30.04,7.0,SSW,9.2,-,0.02,Rain,Light Rain,210,2013-06-28 08:53:00
1:53 AM,45.0,43.0,93,30.05,9.0,SW,10.4,-,0.03,Rain,Light Rain,220,2013-06-28 09:53:00
2:53 AM,45.0,43.0,93,30.05,10.0,SW,9.2,-,0.01,Rain,Light Rain,230,2013-06-28 10:53:00
3:53 AM,45.0,43.0,93,30.06,10.0,SW,9.2,-,0.01,Rain,Light Rain,220,2013-06-28 11:53:00
4:53 AM,45.0,43.0,93,30.06,10.0,SSW,8.1,-,0.01,Rain,Light Rain,210,2013-06-28 12:53:00
5:53 AM,45.0,43.0,93,30.06,10.0,SSW,8.1,-,0.01,Rain,Light Rain,200,2013-06-28 13:53:00
6:53 AM,45.0,43.0,93,30.06,10.0,SSW,8.1,-,0.00,,Overcast,210,2013-06-28 14:53:00
7:53 AM,45.0,43.0,93,30.06,10.0,SSW,6.9,-,N/A,,Overcast,200,2013-06-28 15:53:00
8:53 AM,45.0,43.0,93,30.07,10.0,SSW,5.8,-,N/A,,Overcast,210,2013-06-28 16:53:00
9:41 AM,46.4,42.8,87,30.07,10.0,South,5.8,-,N/A,,Overcast,190,2013-06-28 17:41:00
9:53 AM,46.0,43.0,89,30.07,10.0,SSW,5.8,-,N/A,,Overcast,210,2013-06-28 17:53:00
10:53 AM,46.0,43.0,89,30.07,10.0,SW,4.6,-,N/A,,Overcast,220,2013-06-28 18:53:00
11:53 AM,46.0,43.0,89,30.07,10.0,South,4.6,-,N/A,,Overcast,180,2013-06-28 19:53:00
12:53 PM,46.9,43.0,86,30.08,10.0,SSE,4.6,-,N/A,,Overcast,160,2013-06-28 20:53:00
1:53 PM,46.9,43.0,86,30.08,10.0,SSE,4.6,-,N/A,,Overcast,150,2013-06-28 21:53:00
2:53 PM,46.0,44.1,93,30.08,4.0,South,4.6,-,N/A,,Overcast,190,2013-06-28 22:53:00
3:17 PM,46.4,44.6,93,30.08,2.0,South,5.8,-,0.00,Rain,Light Rain,190,2013-06-28 23:17:00
3:31 PM,46.4,44.6,93,30.08,3.0,South,5.8,-,0.01,,Light Drizzle,180,2013-06-28 23:31:00
3:53 PM,46.0,45.0,96,30.09,3.0,South,4.6,-,0.01,,Light Drizzle,170,2013-06-28 23:53:00
4:53 PM,46.9,45.0,93,30.07,2.5,South,4.6,-,0.01,,Overcast,180,2013-06-29 00:53:00
5:21 PM,46.4,44.6,93,30.06,3.0,South,4.6,-,0.00,,Light Drizzle,190,2013-06-29 01:21:00
5:53 PM,46.9,45.0,93,30.06,10.0,South,3.5,-,0.00,,Overcast,170,2013-06-29 01:53:00
6:53 PM,46.9,45.0,93,30.05,10.0,SSE,4.6,-,0.00,Rain,Light Rain,150,2013-06-29 02:53:00
7:53 PM,46.9,45.0,93,30.05,10.0,South,4.6,-,0.02,Rain,Light Rain,170,2013-06-29 03:53:00
8:53 PM,46.9,45.0,93,30.04,10.0,SSE,5.8,-,0.02,Rain,Light Rain,160,2013-06-29 04:53:00
9:16 PM,46.4,44.6,93,30.04,10.0,SE,3.5,-,0.00,Rain,Light Rain,130,2013-06-29 05:16:00
9:30 PM,46.4,44.6,93,30.03,10.0,East,3.5,-,0.00,Rain,Light Rain,100,2013-06-29 05:30:00
9:53 PM,48.0,45.0,89,30.03,10.0,East,3.5,-,0.00,Rain,Light Rain,90,2013-06-29 05:53:00
10:13 PM,46.4,44.6,93,30.02,10.0,ESE,3.5,-,0.01,Rain,Light Rain,120,2013-06-29 06:13:00
10:30 PM,48.2,44.6,87,30.02,10.0,NE,4.6,-,0.01,Rain,Light Rain,50,2013-06-29 06:30:00
10:46 PM,48.2,44.6,87,30.01,10.0,East,3.5,-,0.01,Rain,Light Rain,80,2013-06-29 06:46:00
10:53 PM,46.9,45.0,93,30.01,10.0,ESE,3.5,-,0.01,Rain,Light Rain,110,2013-06-29 06:53:00
11:31 PM,46.4,44.6,93,30.02,10.0,SE,3.5,-,0.00,,Overcast,140,2013-06-29 07:31:00
11:53 PM,48.0,46.0,93,30.02,10.0,East,3.5,-,0.00,,Overcast,100,2013-06-29 07:53:00